Location: Oshawa
(43.9000°N, 78.8670°W)
Time: 05:43:10
(UTC-04:00)

Cosmos 839 Rocket - Visible Passes

Search period start: 20 October 2014 00:00
Search period end: 30 October 2014 00:00
Orbit: 968 x 2084 km, 65.9° (Epoch: 17 October)

Date Brightness Start Highest point End Pass type
(mag) Time Alt. Az. Time Alt. Az. Time Alt. Az.
20 Oct 7.1 04:54:07 10° SE 04:57:31 14° ESE 05:00:40 10° ENE visible
20 Oct 4.5 06:49:05 10° SSW 06:56:48 81° ESE 07:03:14 10° NE visible
21 Oct 5.1 06:07:28 10° S 06:14:58 53° ESE 06:21:14 10° NE visible
22 Oct 5.8 05:26:21 10° S 05:33:11 35° ESE 05:39:01 10° NE visible
23 Oct 6.4 04:45:54 10° SSE 04:51:29 22° ESE 04:56:25 10° ENE visible
23 Oct 4.2 06:43:32 10° SW 06:51:03 71° NW 06:57:24 10° NNE visible
24 Oct 6.9 04:06:45 10° SE 04:09:53 13° ESE 04:12:50 10° E visible
24 Oct 4.4 06:01:30 10° SSW 06:09:09 79° ESE 06:15:32 10° NE visible
25 Oct 5.0 05:19:54 10° S 05:27:18 52° ESE 05:33:32 10° NE visible
26 Oct 5.6 04:39:10 11° S 04:45:32 34° ESE 04:51:18 10° NE visible
26 Oct 4.4 06:38:21 10° SW 06:45:24 49° NW 06:51:29 10° NNE visible
27 Oct 6.2 04:00:30 16° SE 04:03:51 21° ESE 04:08:40 10° ENE visible
27 Oct 4.1 05:57:15 16° SW 06:03:24 72° NW 06:09:43 10° NNE visible
28 Oct 6.7 03:21:17 12° ESE 03:22:15 13° ESE 03:24:58 10° E visible
28 Oct 4.3 05:18:00 34° SSW 05:21:29 78° ESE 05:27:51 10° NE visible
28 Oct 5.2 07:16:40 10° W 07:22:07 24° NW 07:27:07 10° NNE visible
29 Oct 4.8 04:38:25 46° SSE 04:39:39 51° ESE 04:45:50 10° NE visible
29 Oct 4.8 06:35:07 16° WSW 06:39:51 34° NW 06:45:30 10° NNE visible
